Location: Navajo Flats
(35.4008°N, 120.2808°W)
Time: 01:20:09
(UTC-08:00)

Hubble Space Telescope - Visible Passes

Search period start: 01 December 2020 00:00
Search period end: 11 December 2020 00:00
Orbit: 536 x 540 km, 28.5° (Epoch: 30 November)

Date Brightness Start Highest point End Pass type
(mag) Time Alt. Az. Time Alt. Az. Time Alt. Az.
01 Dec 2.7 18:19:54 10° SSW 18:22:44 18° SSE 18:23:42 17° SE visible
02 Dec 2.6 18:08:44 10° SW 18:11:51 21° SSE 18:13:33 16° SE visible
03 Dec 2.5 17:57:41 10° SW 18:00:59 23° SSE 18:03:24 14° ESE visible
03 Dec 3.7 19:38:04 10° WSW 19:38:43 14° WSW 19:38:43 14° WSW visible
04 Dec 2.4 17:46:41 10° SW 17:50:07 26° S 17:53:15 12° ESE visible
04 Dec 3.3 19:27:14 10° WSW 19:28:34 18° SW 19:28:34 18° SW visible
05 Dec 2.3 17:35:43 10° SW 17:39:15 28° S 17:42:47 10° ESE visible
05 Dec 2.9 19:16:26 10° WSW 19:18:26 22° SW 19:18:26 22° SW visible
06 Dec 2.3 17:24:47 10° SW 17:28:24 29° S 17:32:00 10° ESE visible
06 Dec 2.6 19:05:38 10° WSW 19:08:21 25° SSW 19:08:21 25° SSW visible
07 Dec 2.3 17:13:54 10° WSW 17:17:33 30° S 17:21:11 10° ESE visible
07 Dec 2.5 18:54:53 10° WSW 18:58:18 25° S 18:58:19 25° S visible
08 Dec 2.6 18:44:09 10° WSW 18:47:25 23° SSW 18:48:20 21° S visible
09 Dec 2.9 18:33:29 10° WSW 18:36:32 20° SSW 18:38:29 15° SSE visible
10 Dec 3.2 18:22:53 10° WSW 18:25:38 17° SSW 18:28:25 10° SSE visible
